This demonstration page uses our WeatherBlox Daily Observations layout. Learn more.

Left ArrowRight Arrow

39.12711, -84.51439

Hourly Observations for September 27, 2018

Temp ( °F °C ) Dew Point ( °F °C ) Humidity (%) Winds ( mph kmh ) Pressure ( in mb ) Visibility ( mi km ) Precip ( " mm )
12:53 am 00:53 Clear 55 12.8 55 12.8 100 100 Calm 30.15 1021 10 16 0.00 0.00
1:53 am 01:53 Clear 57 13.9 57 13.9 100 100 Calm 30.14 1021 10 16 0.00 0.00
2:53 am 02:53 Clear 56 13.3 56 13.3 100 100 ENE 3 6 30.14 1021 10 16 0.00 0.00
3:53 am 03:53 Clear 56 13.3 52 11.1 87 87 NE 6 9 30.14 1021 10 16 0.00 0.00
4:53 am 04:53 Clear 56 13.3 51 10.6 84 84 Calm 30.12 1020 10 16 0.00 0.00
5:53 am 05:53 Clear 55 12.8 52 11.1 90 90 Calm 30.12 1020 10 16 0.00 0.00
6:53 am 06:53 Clear 56 13.3 51 10.6 84 84 Calm 30.13 1020 10 16 0.00 0.00
7:53 am 07:53 Sunny 55 12.8 53 11.7 93 93 Calm 30.12 1020 10 16 0.00 0.00
8:53 am 08:53 Sunny 56 13.3 52 11.1 87 87 NE 6 9 30.11 1020 10 16 0.00 0.00
9:53 am 09:53 Sunny 57 13.9 52 11.1 83 83 Calm 30.10 1019 10 16 0.00 0.00
10:53 am 10:53 Sunny 61 16.1 55 12.8 81 81 NNE 6 9 30.08 1019 10 16 0.00 0.00
11:53 am 11:53 Mostly Sunny 62 16.7 53 11.7 73 73 N 6 9 30.09 1019 10 16 0.00 0.00
12:53 pm 12:53 Mostly Sunny 62 16.7 56 13.3 80 80 Calm 30.08 1019 10 16 0.00 0.00
1:53 pm 13:53 Mostly Sunny 63 17.2 55 12.8 76 76 N 7 11 30.05 1018 10 16 0.00 0.00
2:53 pm 14:53 Cloudy 63 17.2 55 12.8 76 76 NNW 7 11 30.03 1017 10 16 0.00 0.00
3:53 pm 15:53 Cloudy 63 17.2 56 13.3 78 78 N 7 11 29.98 1015 10 16 0.00 0.03
4:53 pm 16:53 Cloudy 62 16.7 56 13.3 80 80 Calm 29.98 1015 10 16 0.00 0.03
5:53 pm 17:53 Cloudy 62 16.7 57 13.9 84 84 NNW 7 11 29.99 1016 10 16 0.00 0.03
6:53 pm 18:53 Mostly Cloudy 60 15.6 57 13.9 90 90 E 3 6 29.96 1015 10 16 0.00 0.00
7:53 pm 19:53 Mostly Cloudy with Light Rain 59 15 58 14.4 96 96 W 5 7 30.01 1016 10 16 0.00 0.03
8:53 pm 20:53 Mostly Clear 58 14.4 56 13.3 93 93 Calm 30.04 1017 10 16 0.00 0.03
9:53 pm 21:53 Clear 55 12.8 55 12.8 100 100 Calm 30.05 1018 10 16 0.00 0.00
10:53 pm 22:53 Partly Cloudy with Mist and Fog 54 12.2 54 12.2 100 100 Calm 30.06 1018 3 5 0.00 0.00
11:20 pm 23:20 Mostly Clear with Mist and Fog 52 11.1 52 11.1 100 100 Calm 30.06 1018 2 3 0.00 0.00
11:53 pm 23:53 Clear with Mist and Fog 52 11.1 52 11.1 100 100 Calm 30.06 1018 3 5 0.00 0.00

Powered by AerisWeather